Regional Weather Roundup
Issued by NWS

Home | Current Version | Previous Version | Graphics & Text | Print | Product List | Glossary On
Versions: 1 2 3 4 5 6 7 8 9 10 11 12 13 14 15 16 17 18 19 20 21 22 23 24 25 26 27 28 29 30 31 32 33 34 35 36 37 38 39 40 41 42 43 44 45 46 47 48 49 50
000
ASUS43 KMPX 070210
RWRMN
WEATHER ROUNDUP FOR MINNESOTA
NATIONAL WEATHER SERVICE TWIN CITIES/CHANHASSEN MN
900 PM CDT MON JUL 06 2015


NOTE: "FAIR" INDICATES FEW OR NO CLOUDS BELOW 12,000 FEET WITH NO
SIGNIFICANT WEATHER AND/OR OBSTRUCTIONS TO VISIBILITY. N/A MEANS
CURRENT SKY AND/OR WEATHER CONDITIONS ARE NOT AVAILABLE.

MNZ060>063-068>070-070300-
   Twin Cities Metro

CITY           SKY/WX    TMP DP  RH WIND       PRES   REMARKS
TWIN CITIES    MOCLDY    67  51  56 N13G23    30.00R
ST PAUL        PTCLDY    66  51  58 N16       30.00R
CRYSTAL        MOCLDY    67  50  54 N14G23    30.00R
BLAINE         MOCLDY    66  52  59 NW17      30.01R
LAKEVILLE      PTCLDY    64  54  68 NW17G24   29.98R
EDEN PRAIRIE   MOCLDY    67  51  56 N16G22    29.99R
SOUTH ST PAUL  MOCLDY    67  50  54 N12G22    29.98R
LAKE ELMO      FAIR      64  54  68 NW9       30.01R
$$
MNZ001>005-007-008-013>017-022>024-027-028-070300-
   Northwest Minnesota

CITY           SKY/WX    TMP DP  RH WIND       PRES   REMARKS
BEMIDJI        CLOUDY    56  46  69 NW9       30.07S
HALLOCK        CLEAR     59  50  72 NW5       30.12R
ROSEAU         CLEAR     57  50  77 CALM      30.10S
WARROAD        MOCLDY    57  52  82 CALM      30.09F
THIEF RVR FALL CLOUDY    59  45  58 N9        30.11S
CROOKSTON      PTCLDY    57  48  72 N6        30.12S
FOSSTON        CLOUDY    55  45  67 N9        30.11S
DETROIT LAKES  CLEAR     59  45  58 N5        30.11R
MOORHEAD       CLEAR     61  46  59 N10       30.11S
PARK RAPIDS    MOCLDY    59  43  55 N9        30.08R
MAHNOMEN       FAIR      56  44  63 N9        30.10S
$$
MNZ006-009>011-018-025>026-070300-
   North Central Minnesota

CITY           SKY/WX    TMP DP  RH WIND       PRES   REMARKS
BAUDETTE       CLOUDY    57  45  64 N5        30.07S
FLAG ISLAND    CLEAR     61  45  55 N8        30.06S
INTL FALLS     CLOUDY    56  43  61 N9        30.05S
WASKISH        CLOUDY    55  46  71 N5        30.08S
BIG FORK       CLOUDY    57  45  62 NW5       30.05S
LONGVILLE      CLOUDY    57  46  67 CALM      30.05S
GRAND RAPIDS   CLOUDY    57  43  58 NW15G22   30.04R
CRANE LAKE     CLOUDY    54  45  71 N7        30.04S
COOK           CLOUDY    55  46  71 NW3       30.03S
WALKER         CLOUDY    56  46  69 NW5       30.06S
$$
MNZ012-019>021-037-070300-
   Northeast Minnesota

CITY           SKY/WX    TMP DP  RH WIND       PRES   REMARKS
DULUTH         MOCLDY    59  45  59 N9        29.99R
ELY            CLOUDY    54  43  66 N8        30.01S
HIBBING        CLOUDY    57  45  64 N14       30.02R
DULUTH HARBOR    N/A     64  52  63 N15       29.99R
TWO HARBORS    PTCLDY    61  50  67 NW8       29.97R
SILVER BAY     MOCLDY    59  46  63 NW5       29.96R
GRAND MARAIS     N/A     58  47  66 NW6       29.95R
G MARAIS ARPRT CLEAR     52  43  71 NW6       29.97R
$$
MNZ029>031-032-039>041-046>048-054>057-064-070300-
   West Central Minnesota

CITY           SKY/WX    TMP DP  RH WIND       PRES   REMARKS
FERGUS FALLS   CLEAR     61  46  59 N8        30.09R
WHEATON        CLEAR     59  48  67 N8        30.11R
MORRIS         CLEAR     61  48  63 N9        30.08R
ALEXANDRIA     CLEAR     59  46  62 N14       30.08S
ELBOW LAKE     FAIR      60  46  60 N10       30.08R
WADENA         PTCLDY    57  45  62 N8        30.07S
GLENWOOD       CLEAR     59  46  63 N8        30.08R
APPLETON       CLEAR     63  48  59 N8        30.08R
BENSON         CLEAR     61  45  55 N7        30.08R
ORTONVILLE     CLEAR     63  48  59 N7        30.09R
MADISON        CLEAR     63  48  59 N7        30.09R
WILLMAR        FAIR      63  48  59 N10G17    30.09R
$$
MNZ033>034-036-042>043-049>051-058-059-070300-
   Central Minnesota

CITY           SKY/WX    TMP DP  RH WIND       PRES   REMARKS
ST CLOUD       CLEAR     59  48  67 NW8       30.05R
SAUK CENTRE    FAIR      59  46  61 N7        30.07R
PAYNESVILLE    CLEAR     56  45  65 NW6       30.08R
AITKIN         MOCLDY    57  46  67 NW5       30.03R
PINE RIVER     MOCLDY    57  46  67 NW6       30.09R
BRAINERD       CLOUDY    60  44  55 NW16      30.05R
STAPLES        CLEAR     55  45  67 N7        30.07R
LONG PRAIRIE   FAIR      57  45  62 NW6       30.07R
LITTLE FALLS   MOCLDY    59  43  55 NW6       30.06R
LITCHFIELD     CLEAR     63  48  59 N16       30.07R
BUFFALO        PTCLDY    62  47  58 NW8       30.05R
MAPLE LAKE     CLEAR     62  49  63 NW9       30.06R
$$
MNZ037-044-045-052-053-070300-
   East Central Minnesota

CITY           SKY/WX    TMP DP  RH WIND       PRES   REMARKS
PRINCETON      CLOUDY    63  50  63 NW6       30.04R
MORA           PTCLDY    57  45  62 CALM      30.04R
CAMBRIDGE      CLEAR     63  48  59 NW6       30.01R
MOOSE LAKE     CLOUDY    59  46  63 CALM      30.00R
HINCKLEY       FAIR      59  46  63 NW7       30.01R
CLOQUET        CLOUDY    59  45  58 NW10      30.01R
MCGREGOR       CLOUDY    59  46  63 NW9G17    30.03S
$$
MNZ071>073-080-081-089-090-097-098-070300-
   Southwest Minnesota

CITY           SKY/WX    TMP DP  RH WIND       PRES   REMARKS
GRANITE FALLS  CLEAR     61  50  66 NW9       30.09R
CANBY          PTCLDY    62  50  66 N6        30.11R
MARSHALL       CLEAR     61  48  63 NE8       30.08R
REDWOOD FALLS  CLEAR     63  48  58 N8        30.07R
OLIVIA         CLEAR     59  45  58 N9        30.06R
PIPESTONE      CLEAR     63  54  72 NE3       30.10R
WINDOM         CLEAR     63  52  67 N15G21    30.06F
WORTHINGTON    PTCLDY    61  50  67 N12       30.07S
JACKSON        PTCLDY    63  52  67 N12G21    30.06R
TRACY          CLEAR     62  52  71 N6        30.09R
SLAYTON        CLEAR     60  55  81 CALM      30.10S
$$
MNZ065>067-074>077-082>085-091>093-070300-
   South Central Minnesota

CITY           SKY/WX    TMP DP  RH WIND       PRES   REMARKS
MANKATO        CLEAR     66  52  59 NW16      30.00S
NEW ULM        CLEAR     64  48  55 N13G21    30.02S
ST JAMES       CLEAR     64  54  68 NW13      30.04R
FAIRMONT       PTCLDY    64  52  63 NW14      30.02R
GLENCOE        PTCLDY    65  52  63 NW8G18    30.04R
FARIBAULT      CLEAR     64  61  88 NW3       29.98S
OWATONNA       CLEAR     64  57  77 CALM      29.98S HAZE
WASECA         MOCLDY    64  54  68 NW14      30.01R HAZE
ALBERT LEA     PTCLDY    64  61  88 NW3       29.98S HAZE
$$
MNZ078>079-086>088-094>096-070300-
   Southeast Minnesota

CITY           SKY/WX    TMP DP  RH WIND       PRES   REMARKS
ROCHESTER      PTCLDY    62  57  83 N7        29.97S SMOKE
RED WING       CLEAR     64  61  88 CALM      29.95S FOG
STANTON        CLOUDY    66  61  82 NW3       29.95F
DODGE CENTER   PTCLDY    63  61  94 N3        29.97F FOG
WINONA           N/A     63  57  82 N3        29.94S HAZE
AUSTIN         PTCLDY    64  59  82 N3        29.97S HAZE
PRESTON          N/A     61  56  84 N7        29.96S HAZE
$$
ABBREVIATIONS USED IN REMARKS
   TC - TEMPERATURES IN CELSIUS
  WCI - WIND CHILL INDEX
   HX - HEAT INDEX
  VSB - VISIBILITY
$$



USA.gov is the U.S. government's official web portal to all federal, state and local government web resources and services.